Torna al catalogo

STARLINK-2442

AttivoComunicazioniVLEO
NORAD 48106·PAYLOAD·🇺🇸 United States

Lanciato Apr 7, 2021 da Cape Canaveral Space Force Station

Loading…

Prossimi Passaggi (prossime 24 ore)

TLE

AggiornatoSource: CelesTrak SupGP

Epoca: Sep 15, 2026, 02:41 UTC

1 48106C 21027Q   26258.11229167  .00134420  00000+0  43275-2 0  2587
2 48106  53.1584 351.1285 0001244  97.8250  64.1854 15.31599162    15

Traccia STARLINK-2442 in tempo reale con AllMySat

Download on the App Store